<< Return to Weather Page
Newport News, VA
on Monday, May 7, 2012

Monday
Previous Day Next Day
Daily Summary
 ActualAverageRecord
Temperature
Mean Temperature - -  
Max Temperature 70 °F 74 °F 92 °F (1959)
Min Temperature 50 °F 52 °F 40 °F (1974)
Degree Days
Heating Degree Days 5    
Growing Degree Days10 (Base - )  
Moisture
Dew Point 49 °F   
Average Humidity 72    
Maximum Humidity 97    
Minimum Humidity 39    
Precipitation
Precipitation 0.00 in - - ()
Wind
Wind Speed 5 mph   
Max Wind Speed 16 mph   
Max Gust Speed 23 mph   
Visibility 9 miles   
Events Fog   
Averages and records for this station are not official NWS values.
Key: T is trace of precipitation, MM is missing value
Source: NWS Daily Summary
Seasonal Weather Averages
Time(EDT)TemperatureDew PointHumidity Pressure Visibility Wind DirectionWind SpeedGust SpeedPrecipitationEvents Conditions
12:54 AM 55.9 °F 53.1 °F 90% 30.08 in 10.0 miles East 3.5 mph - N/A   Clear
1:54 AM 54.0 °F 52.0 °F 93% 30.08 in 10.0 miles Calm Calm - N/A   Clear
2:54 AM 52.0 °F 51.1 °F 97% 30.08 in 10.0 miles NNW 3.5 mph - N/A   Clear
3:54 AM 52.0 °F 50.0 °F 93% 30.08 in 7.0 miles Calm Calm - N/A   Clear
4:54 AM 52.0 °F 50.0 °F 93% 30.06 in 5.0 miles Calm Calm - N/A   Clear
5:01 AM 51.8 °F 50.0 °F 94% 30.06 in 5.0 miles Calm Calm - N/A   Scattered Clouds
5:16 AM 50.0 °F 48.2 °F 94% 30.06 in 1.0 miles Calm Calm - N/A   Mist
5:24 AM 51.8 °F 50.0 °F 94% 30.06 in 0.5 miles Calm Calm - N/A Fog Fog
5:54 AM 50.0 °F 48.0 °F 93% 30.05 in 10.0 miles ENE 3.5 mph - N/A   Clear
6:54 AM 55.9 °F 52.0 °F 87% 30.07 in 10.0 miles East 9.2 mph - N/A   Clear
7:54 AM 61.0 °F 52.0 °F 72% 30.09 in 10.0 miles East 8.1 mph - N/A   Clear
8:54 AM 64.0 °F 48.9 °F 58% 30.11 in 10.0 miles ESE 12.7 mph 17.3 mph N/A   Clear
9:54 AM 66.0 °F 48.0 °F 52% 30.13 in 10.0 miles East 11.5 mph - N/A   Clear
10:54 AM 68.0 °F 48.9 °F 50% 30.13 in 10.0 miles East 13.8 mph 18.4 mph N/A   Clear
11:54 AM 68.0 °F 46.9 °F 47% 30.13 in 10.0 miles ESE 12.7 mph - N/A   Clear
12:54 PM 70.0 °F 45.0 °F 41% 30.12 in 10.0 miles ESE 12.7 mph 23.0 mph 0.00 in   Clear
1:54 PM 69.1 °F 43.0 °F 39% 30.12 in 10.0 miles SE 16.1 mph 21.9 mph N/A   Clear
2:54 PM 68.0 °F 46.9 °F 47% 30.12 in 10.0 miles East 13.8 mph - N/A   Clear
3:54 PM 68.0 °F 43.0 °F 40% 30.10 in 10.0 miles SE 9.2 mph - N/A   Clear
4:54 PM 66.9 °F 44.1 °F 44% 30.08 in 10.0 miles ESE 10.4 mph - N/A   Scattered Clouds
5:54 PM 64.0 °F 46.0 °F 52% 30.07 in 10.0 miles East 11.5 mph - N/A   Mostly Cloudy
6:54 PM 63.0 °F 48.9 °F 60% 30.06 in 10.0 miles ESE 12.7 mph 16.1 mph N/A   Clear
7:54 PM 60.1 °F 52.0 °F 75% 30.07 in 10.0 miles East 9.2 mph - N/A   Overcast
8:54 PM 59.0 °F 52.0 °F 78% 30.06 in 10.0 miles ESE 6.9 mph - N/A   Clear
9:54 PM 57.2 °F 51.8 °F 82% 30.08 in 10.0 miles East 4.6 mph - N/A   Clear
10:54 PM 55.0 °F 51.1 °F 86% 30.09 in 10.0 miles Calm Calm - N/A   Mostly Cloudy
11:54 PM 57.9 °F 54.0 °F 87% 30.09 in 10.0 miles East 3.5 mph - N/A   Overcast

Astronomy

Sunrise: 06:04 AM (EDT) Moon Rise: 10:08 PM (EDT) 5 / 7
Sunset: 08:00 PM (EDT) Moon Set: 07:09 AM (EDT) 5 / 7
Moon Phase
May. 07 May. 12 May. 20 May. 28 Jun. 04

Powered by the Weather Underground, Inc.